EW9606 Weather Reports


time (UTC)temp
F
wind
direction
speed
knots
gust
knots
rain 1hr
in
rain 24hr
in
rain mn
in
humidity
%
barometer
mb
20260508022607 63 273 1.7 4.3 0.00 0.00 0.00 53 1014.6
20260508022106 63 270 3.5 7.0 0.00 0.00 0.00 53 1014.7
20260508021606 63 270 0.9 5.2 0.00 0.00 0.00 53 1014.8
20260508021107 62 279 0.9 2.6 0.00 0.00 0.00 52 1014.7
20260508020606 62 202 0.0 2.6 0.00 0.00 0.00 52 1014.6
20260508020107 62 270 0.9 2.6 0.00 0.00 0.00 51 1014.6
20260508015606 62 270 0.9 2.6 0.00 0.00 0.00 50 1014.8
20260508014106 62 292 1.7 4.3 0.00 0.00 0.00 46 1014.7
20260508013607 62 270 0.9 2.6 0.00 0.00 0.00 46 1014.6
20260508013106 62 270 0.9 1.7 0.00 0.00 0.00 46 1014.7
20260508012607 62 270 0.9 1.7 0.00 0.00 0.00 46 1014.7
20260508012107 63 270 0.9 1.7 0.00 0.00 0.00 46 1014.8
20260508011606 63 256 0.9 1.7 0.00 0.00 0.00 46 1014.7
20260508011106 63 248 0.9 1.7 0.00 0.00 0.00 47 1014.7
20260508010606 63 262 0.9 1.7 0.00 0.00 0.00 48 1014.8
20260508010107 63 270 0.0 1.7 0.00 0.00 0.00 49 1014.8
20260508005606 63 248 0.9 1.7 0.00 0.00 0.00 51 1014.8
20260508004607 63 256 0.9 1.7 0.00 0.00 0.00 53 1015.0
20260508004106 63 270 0.9 2.6 0.00 0.00 0.00 53 1015.1
20260508003607 63 239 0.9 2.6 0.00 0.00 0.00 53 1015.2
20260508003106 63 256 0.9 2.6 0.00 0.00 0.00 54 1015.3
20260508002606 63 270 0.9 2.6 0.00 0.00 0.00 54 1015.3
20260508002106 63 284 0.9 2.6 0.00 0.00 0.00 54 1015.1
20260508001606 63 283 0.9 2.6 0.00 0.00 0.00 55 1015.1
20260508001106 63 270 0.9 0.9 0.00 0.00 0.00 56 1015.1
20260508000606 63 270 0.9 0.9 0.00 0.00 0.00 56 1015.2
20260508000106 63 270 0.9 1.7 0.00 0.00 0.00 56 1015.3
20260507235606 63 265 0.9 1.7 0.00 0.00 0.00 56 1015.3
20260507234606 63 270 0.9 1.7 0.00 0.00 0.00 56 1015.3
20260507234107 63 270 0.9 2.6 0.00 0.00 0.00 56 1015.3
20260507233607 63 278 0.9 2.6 0.00 0.00 0.00 56 1015.6
20260507232611 64 270 1.7 2.6 0.00 0.00 0.00 57 1015.7
20260507232107 64 270 1.7 2.6 0.00 0.00 0.00 57 1015.8
20260507231606 64 291 1.7 4.3 0.00 0.00 0.00 57 1016.0
20260507231107 64 284 1.7 2.6 0.00 0.00 0.00 57 1015.7
20260507230106 65 270 1.7 2.6 0.00 0.00 0.00 58 1015.6
20260507225607 65 284 1.7 2.6 0.00 0.00 0.00 58 1015.7
20260507225106 65 260 1.7 5.2 0.00 0.00 0.00 59 1015.8
20260507224606 65 277 1.7 5.2 0.00 0.00 0.00 61 1015.6
20260507224106 65 292 2.6 5.2 0.00 0.00 0.00 61 1015.6
20260507223606 66 284 1.7 4.3 0.00 0.00 0.00 62 1015.6
20260507223107 66 278 1.7 4.3 0.00 0.00 0.00 62 1015.8
20260507222607 65 276 1.7 2.6 0.00 0.00 0.00 63 1015.7
20260507222106 65 284 1.7 2.6 0.00 0.00 0.00 63 1015.6
20260507221106 65 285 1.7 2.6 0.00 0.00 0.00 64 1015.4
20260507220606 65 270 1.7 2.6 0.00 0.00 0.00 64 1015.7
20260507215606 64 270 1.7 2.6 0.00 0.00 0.00 64 1015.8
20260507215106 64 283 1.7 2.6 0.00 0.00 0.00 64 1015.7
20260507214606 64 292 0.9 2.6 0.00 0.00 0.00 65 1015.5
20260507214107 65 292 1.7 2.6 0.00 0.00 0.00 65 1015.7
20260507213606 65 292 0.9 4.3 0.00 0.00 0.00 65 1015.8
20260507213106 65 298 0.9 4.3 0.00 0.00 0.00 65 1015.8
20260507211106 66 268 1.7 5.2 0.00 0.00 0.00 63 1015.8
20260507210606 66 261 1.7 4.3 0.00 0.00 0.00 63 1015.9
20260507210107 66 270 2.6 6.1 0.00 0.00 0.00 64 1015.9
20260507205606 66 280 2.6 6.1 0.00 0.00 0.00 64 1015.8
20260507205106 66 270 2.6 5.2 0.00 0.00 0.00 64 1015.9
20260507204607 66 270 1.7 4.3 0.00 0.00 0.00 64 1015.9
20260507203106 66 279 2.6 6.1 0.00 0.00 0.00 65 1015.8
20260507202607 66 255 2.6 7.0 0.00 0.00 0.00 65 1015.9
20260507202106 66 278 2.6 6.1 0.00 0.00 0.00 65 1015.9
20260507201606 66 296 2.6 6.1 0.00 0.00 0.00 65 1015.9
20260507201106 66 248 2.6 6.1 0.00 0.00 0.00 65 1015.9
20260507200606 66 280 2.6 6.1 0.00 0.00 0.00 65 1016.1
20260507200107 66 283 4.3 7.0 0.00 0.00 0.00 65 1015.9
20260507195606 66 284 4.3 7.8 0.00 0.00 0.00 64 1016.0
20260507195106 66 270 4.3 7.0 0.00 0.00 0.00 64 1016.2
20260507194607 66 282 3.5 5.2 0.00 0.00 0.00 64 1016.0
20260507194106 66 306 2.6 7.8 0.00 0.00 0.00 64 1016.2
20260507193606 66 236 4.3 7.8 0.00 0.00 0.00 64 1016.3
20260507192606 66 248 4.3 7.0 0.00 0.00 0.00 64 1016.2
20260507191606 67 277 3.5 7.8 0.00 0.00 0.00 64 1016.2
20260507191106 67 282 5.2 8.7 0.00 0.00 0.00 64 1016.1
20260507190606 67 240 2.6 7.0 0.00 0.00 0.00 64 1016.2
20260507185606 67 239 2.6 7.0 0.00 0.00 0.00 64 1015.9
20260507185106 67 330 3.5 10.4 0.00 0.00 0.00 64 1016.0
20260507184606 67 259 3.5 7.0 0.00 0.00 0.00 64 1016.0
20260507184106 67 278 4.3 7.8 0.00 0.00 0.00 64 1015.9
20260507183607 67 278 2.6 7.8 0.00 0.00 0.00 64 1016.1
20260507183107 67 270 5.2 7.0 0.00 0.00 0.00 63 1015.9
20260507182106 67 241 3.5 7.8 0.00 0.00 0.00 63 1015.9
20260507181606 67 312 4.3 8.7 0.00 0.00 0.00 63 1016.0
20260507181106 67 263 4.3 11.3 0.00 0.00 0.00 63 1015.9
20260507180606 67 248 4.3 8.7 0.00 0.00 0.00 63 1015.9
20260507180106 67 257 4.3 8.7 0.00 0.00 0.00 63 1015.8
20260507175606 67 270 2.6 8.7 0.00 0.00 0.00 63 1015.8
20260507174606 67 257 4.3 7.8 0.00 0.00 0.00 62 1015.2
20260507173606 68 264 3.5 8.7 0.00 0.00 0.00 62 1015.3
20260507173106 68 258 5.2 10.4 0.00 0.00 0.00 62 1015.6
20260507172606 68 249 4.3 10.4 0.00 0.00 0.00 62 1015.3
20260507172106 68 255 3.5 10.4 0.00 0.00 0.00 62 1015.6
20260507171606 68 258 6.1 11.3 0.00 0.00 0.00 62 1015.6
20260507171106 68 286 5.2 10.4 0.00 0.00 0.00 62 1015.5
20260507170606 68 270 4.3 12.2 0.00 0.00 0.00 62 1015.6
20260507170106 68 248 5.2 10.4 0.00 0.00 0.00 62 1015.7
20260507165606 68 308 5.2 11.3 0.00 0.00 0.00 62 1015.5
20260507164606 68 315 6.1 11.3 0.00 0.00 0.00 63 1015.2
20260507164106 68 280 7.8 13.9 0.00 0.00 0.00 63 1015.2
20260507163607 69 292 5.2 13.0 0.00 0.00 0.00 63 1015.1
20260507163106 69 225 4.3 11.3 0.00 0.00 0.00 63 1015.0
20260507162106 70 256 4.3 7.8 0.00 0.00 0.00 64 1014.9
20260507161606 70 279 5.2 7.8 0.00 0.00 0.00 62 1014.9
20260507161107 70 281 4.3 7.8 0.00 0.00 0.00 63 1014.8
20260507160606 71 284 3.5 11.3 0.00 0.00 0.00 64 1014.8
20260507160106 71 248 4.3 10.4 0.00 0.00 0.00 64 1014.9
20260507155607 71 282 4.3 7.8 0.00 0.00 0.00 64 1014.8
20260507155106 71 270 5.2 8.7 0.00 0.00 0.00 64 1014.9
20260507154606 71 220 4.3 10.4 0.00 0.00 0.00 64 1015.0
20260507154106 71 331 5.2 7.8 0.00 0.00 0.00 64 1015.0
20260507153606 71 243 4.3 7.8 0.00 0.00 0.00 64 1015.0
20260507153106 71 253 5.2 8.7 0.00 0.00 0.00 64 1014.9
20260507152607 71 271 5.2 8.7 0.00 0.00 0.00 64 1014.8
20260507152107 71 225 4.3 10.4 0.00 0.00 0.00 64 1014.9
20260507150606 72 225 3.5 8.7 0.00 0.00 0.00 63 1014.9
20260507145107 71 300 5.2 8.7 0.00 0.00 0.00 64 1014.9
20260507144606 72 315 4.3 10.4 0.00 0.00 0.00 64 1014.9
20260507144106 72 239 5.2 8.7 0.00 0.00 0.00 64 1014.7
20260507143606 72 276 3.5 10.4 0.00 0.00 0.00 64 1014.9
20260507143107 72 315 6.1 8.7 0.00 0.00 0.00 63 1014.9
20260507142607 73 248 4.3 8.7 0.00 0.00 0.00 64 1015.0
20260507142106 72 217 4.3 11.3 0.00 0.00 0.00 64 1014.8
20260507141606 72 284 5.2 11.3 0.00 0.00 0.00 63 1015.0
20260507141106 72 270 2.6 11.3 0.00 0.00 0.00 63 1015.1
20260507140606 71 248 5.2 12.2 0.00 0.00 0.00 63 1015.0
20260507140106 71 265 7.0 12.2 0.00 0.00 0.00 63 1015.0
20260507135106 72 258 4.3 11.3 0.00 0.00 0.00 63 1015.2
20260507134606 71 270 6.1 10.4 0.00 0.00 0.00 63 1015.1
20260507133607 72 248 5.2 11.3 0.00 0.00 0.00 64 1015.3
20260507133106 72 233 5.2 12.2 0.00 0.00 0.00 64 1015.3
20260507132606 72 281 7.0 12.2 0.00 0.00 0.00 64 1015.1
20260507132106 73 262 5.2 11.3 0.00 0.00 0.00 64 1015.2
20260507131606 73 270 4.3 11.3 0.00 0.00 0.00 64 1015.4
20260507131106 73 286 4.3 11.3 0.00 0.00 0.00 63 1015.2
20260507130606 73 278 5.2 8.7 0.00 0.00 0.00 64 1015.2
20260507130106 73 292 6.1 11.3 0.00 0.00 0.00 64 1015.2
20260507125107 74 280 4.3 8.7 0.00 0.00 0.00 63 1015.2
20260507124607 73 261 6.1 8.7 0.00 0.00 0.00 63 1015.2
20260507124106 76 255 1.7 5.2 0.00 0.00 0.00 62 1015.2
20260507123606 75 112 0.9 4.3 0.00 0.00 0.00 63 1015.1
20260507123106 74 61 1.7 5.2 0.00 0.00 0.00 63 1015.1
20260507122607 75 68 1.7 5.2 0.00 0.00 0.00 63 1015.4
20260507122107 74 15 2.6 5.2 0.00 0.00 0.00 63 1015.2
20260507121606 75 13 1.7 4.3 0.00 0.00 0.00 63 1015.3
20260507121106 75 346 1.7 2.6 0.00 0.00 0.00 63 1015.2
20260507120606 76 19 1.7 4.3 0.00 0.00 0.00 63 1015.3
20260507120106 75 36 0.9 6.1 0.00 0.00 0.00 63 1015.2
20260507115606 75 90 1.7 6.1 0.00 0.00 0.00 63 1015.3
20260507114607 73 135 4.3 7.0 0.00 0.00 0.00 63 1015.2
20260507114106 74 88 2.6 7.8 0.00 0.00 0.00 62 1015.2
20260507113606 72 112 4.3 7.8 0.00 0.00 0.00 62 1015.2
20260507112607 73 158 4.3 7.8 0.00 0.00 0.00 62 1015.3
20260507112106 73 112 2.6 6.1 0.00 0.00 0.00 62 1015.3
20260507111606 74 112 1.7 4.3 0.00 0.00 0.00 62 1015.2
20260507111106 73 128 2.6 6.1 0.00 0.00 0.00 61 1015.3
20260507110606 72 135 2.6 7.0 0.00 0.00 0.00 60 1015.4
20260507110106 72 128 2.6 7.0 0.00 0.00 0.00 61 1015.4
20260507105106 70 97 5.2 7.8 0.00 0.00 0.00 61 1015.3
20260507104106 71 141 4.3 8.7 0.00 0.00 0.00 61 1015.6
20260507103606 71 119 4.3 7.8 0.00 0.00 0.00 61 1015.5
20260507103106 70 112 5.2 7.8 0.00 0.00 0.00 61 1015.5
20260507102606 71 172 2.6 8.7 0.00 0.00 0.00 61 1015.5
20260507102107 71 112 4.3 7.8 0.00 0.00 0.00 61 1015.5
20260507101606 72 90 2.6 7.0 0.00 0.00 0.00 61 1015.6
20260507101106 71 112 4.3 7.0 0.00 0.00 0.00 60 1015.4
20260507100606 72 106 2.6 7.0 0.00 0.00 0.00 60 1015.5
20260507100106 72 135 4.3 7.0 0.00 0.00 0.00 60 1015.5
20260507095607 75 112 1.7 4.3 0.00 0.00 0.00 61 1015.3
20260507095106 75 248 1.7 4.3 0.00 0.00 0.00 59 1015.6
20260507094106 75 280 1.7 4.3 0.00 0.00 0.00 60 1015.5
20260507093606 73 263 1.7 4.3 0.00 0.00 0.00 61 1015.7
20260507093107 74 237 2.6 5.2 0.00 0.00 0.00 61 1015.8
20260507092106 74 272 1.7 6.1 0.00 0.00 0.00 61 1016.0
20260507091106 73 267 3.5 6.1 0.00 0.00 0.00 61 1016.2
20260507090607 73 276 2.6 5.2 0.00 0.00 0.00 61 1016.2
20260507090106 72 225 4.3 7.0 0.00 0.00 0.00 61 1016.1
20260507085606 73 225 1.7 5.2 0.00 0.00 0.00 61 1016.3
20260507085106 72 236 2.6 6.1 0.00 0.00 0.00 61 1016.2
20260507084107 72 240 2.6 5.2 0.00 0.00 0.00 61 1016.2
20260507083606 73 253 2.6 5.2 0.00 0.00 0.00 61 1016.3
20260507083106 74 267 1.7 6.1 0.00 0.00 0.00 61 1016.3
20260507082606 72 292 4.3 6.1 0.00 0.00 0.00 61 1016.3
20260507082106 72 275 2.6 5.2 0.00 0.00 0.00 61 1016.1
20260507081606 72 259 2.6 5.2 0.00 0.00 0.00 61 1016.2
20260507081106 73 270 1.7 5.2 0.00 0.00 0.00 61 1016.3
20260507080606 71 270 2.6 5.2 0.00 0.00 0.00 61 1016.2
20260507080106 71 239 2.6 5.2 0.00 0.00 0.00 61 1016.2
20260507075606 71 274 2.6 6.1 0.00 0.00 0.00 61 1016.2
20260507075106 70 275 4.3 6.1 0.00 0.00 0.00 61 1016.3
20260507074106 71 262 2.6 5.2 0.00 0.00 0.00 60 1016.4
20260507073607 71 270 1.7 2.6 0.00 0.00 0.00 60 1016.3
20260507073106 70 242 1.7 4.3 0.00 0.00 0.00 60 1016.2
20260507072606 71 258 1.7 5.2 0.00 0.00 0.00 60 1016.3
20260507072107 70 274 2.6 6.1 0.00 0.00 0.00 60 1016.2
20260507071606 70 262 1.7 4.3 0.00 0.00 0.00 60 1016.2
20260507070607 69 270 5.2 6.1 0.00 0.00 0.00 60 1016.2
20260507070106 70 280 2.6 5.2 0.00 0.00 0.00 60 1016.3
20260507065606 69 262 1.7 5.2 0.00 0.00 0.00 60 1016.4
20260507065106 69 234 2.6 5.2 0.00 0.00 0.00 59 1016.2
20260507064606 68 275 2.6 5.2 0.00 0.00 0.00 58 1016.3
20260507064106 67 286 1.7 4.3 0.00 0.00 0.00 57 1016.2
20260507063609 68 284 1.7 4.3 0.00 0.00 0.00 56 1016.1
20260507063106 69 22 0.9 4.3 0.00 0.00 0.00 55 1016.2
20260507062606 67 37 2.6 5.2 0.00 0.00 0.00 55 1016.2
20260507062106 67 29 2.6 5.2 0.00 0.00 0.00 55 1016.1
20260507061607 68 22 0.0 2.6 0.00 0.00 0.00 55 1016.1
20260507061107 67 45 1.7 4.3 0.00 0.00 0.00 55 1016.3
20260507060606 67 0 2.6 5.2 0.00 0.00 0.00 56 1016.2
20260507060106 67 355 0.9 2.6 0.00 0.00 0.00 55 1016.1
20260507055606 67 321 1.7 2.6 0.00 0.00 0.00 56 1016.0
20260507055106 68 346 0.9 2.6 0.00 0.00 0.00 55 1016.0
20260507053606 68 22 0.9 1.7 0.00 0.00 0.00 55 1015.8
20260507053106 67 14 0.9 1.7 0.00 0.00 0.00 55 1015.8
20260507052606 67 0 0.9 1.7 0.00 0.00 0.00 56 1015.9
20260507052107 67 0 0.9 1.7 0.00 0.00 0.00 56 1015.8
20260507051607 67 0 0.9 1.7 0.00 0.00 0.00 56 1015.6
20260507050606 68 338 0.9 1.7 0.00 0.00 0.00 55 1015.5
20260507050106 68 270 0.9 0.9 0.00 0.00 0.00 55 1015.6
20260507045106 67 270 0.9 1.7 0.00 0.00 0.00 56 1015.3
20260507044606 68 270 0.0 0.9 0.00 0.00 0.00 55 1015.2
20260507044106 68 270 0.0 0.9 0.00 0.00 0.00 55 1015.3
20260507043607 67 270 0.0 0.9 0.00 0.00 0.00 55 1015.1
20260507043106 67 270 0.0 0.0 0.00 0.00 0.00 55 1015.0
20260507042606 66 270 0.0 0.0 0.00 0.00 0.00 56 1014.9
20260507041607 64 270 0.0 0.9 0.00 0.00 0.00 56 1015.0
20260507041106 63 270 0.0 0.9 0.00 0.00 0.00 56 1014.9
20260507040606 63 270 0.0 0.9 0.00 0.00 0.00 56 1014.9
20260507040106 62 270 0.9 0.9 0.00 0.00 0.00 57 1014.7
20260507035607 61 270 0.0 0.9 0.00 0.00 0.00 57 1014.5
20260507035106 61 270 0.0 0.9 0.00 0.00 0.00 57 1014.5
20260507034606 61 248 0.0 0.0 0.00 0.00 0.00 57 1014.6
20260507034107 60 248 0.0 0.9 0.00 0.00 0.00 57 1014.5
20260507033607 60 270 0.9 1.7 0.00 0.00 0.00 57 1014.4
20260507033106 60 257 0.9 0.9 0.00 0.00 0.00 57 1014.5
20260507032606 59 270 0.0 0.9 0.00 0.00 0.00 57 1014.4
20260507032106 59 248 0.9 1.7 0.00 0.00 0.00 57 1014.4
20260507031606 59 270 0.9 1.7 0.00 0.00 0.00 58 1014.4
20260507030607 59 270 0.0 0.0 0.00 0.00 0.00 58 1014.2
20260507030107 59 270 0.0 0.9 0.00 0.00 0.00 58 1014.2
20260507025606 59 248 0.9 0.9 0.00 0.00 0.00 58 1014.3
20260507025106 59 270 0.9 0.9 0.00 0.00 0.00 58 1014.3
20260507024607 59 270 0.9 0.9 0.00 0.00 0.00 58 1014.5
20260507024106 59 270 0.9 0.9 0.00 0.00 0.00 58 1014.4
20260507023606 59 270 0.9 1.7 0.00 0.00 0.00 58 1014.3
20260507023106 59 262 0.9 0.9 0.00 0.00 0.00 59 1014.0